User: anonymous   Login
Location: Newark
(53.0000°N, 1.0000°W)
Time: 08:26:12
(UTC+00:00)
Language:

POLYITAN 1 - Orbit

View from above orbital plane
View from above orbital plane
View from above satellite
View from above satellite

Ground track
Ground track

The orbit data is extracted from the following two-line orbital elements,

1 40042U 14033AJ  20025.82848436  .00000251  00000-0  32861-4 0  9995
2 40042  97.9207 310.6316 0015680  45.9656 314.2850 14.88789378304138
Epoch (UTC): 25 January 2020 19:53:01
Eccentricity: 0.0015680
inclination: 97.9207°
perigee height: 591 km
apogee height: 612 km
right ascension of ascending node: 310.6316°
argument of perigee: 45.9656°
revolutions per day: 14.88789378
mean anomaly at epoch: 314.2850°
orbit number at epoch: 30413

The dashed part of the orbit path shows where the satellite is in the earth's shadow,  

DLR